IT9NKT-WX Weather Reports


Display with metric or nautical units.
time (UTC)temp
F
wind
direction
speed
MPH
gust
MPH
rain 1hr
in
rain 24hr
in
rain mn
in
humidity
%
barometer
mb
20260831225503 82 208 0.0 0.0 0.00 0.00 0.00 76 1015.9
20260831225004 82 204 0.0 1.0 0.00 0.00 0.00 76 1015.9
20260831224504 82 189 0.0 1.0 0.00 0.00 0.00 76 1015.8
20260831224217 82 162 0.0 1.0 0.00 0.00 0.00 76 1015.6
20260831223715 82 143 0.0 3.0 0.00 0.00 0.00 76 1015.7
20260831223003 82 21 0.0 2.0 0.00 0.00 0.00 76 1015.6
20260831222503 82 277 0.0 1.0 0.00 0.00 0.00 77 1015.7
20260831222003 82 272 0.0 1.0 0.00 0.00 0.00 76 1015.7
20260831221504 82 192 0.0 1.0 0.00 0.00 0.00 76 1015.9
20260831221003 82 188 0.0 1.0 0.00 0.00 0.00 76 1015.7
20260831220504 82 184 0.0 1.0 0.00 0.00 0.00 75 1015.8
20260831220221 82 186 0.0 1.0 0.00 0.00 0.00 75 1015.8
20260831215503 82 179 0.0 1.0 0.00 0.00 0.00 76 1015.7
20260831215217 82 180 0.0 1.0 0.00 0.00 0.00 76 1015.8
20260831214504 82 264 0.0 2.0 0.00 0.00 0.00 77 1015.7
20260831214218 82 260 0.0 2.0 0.00 0.00 0.00 77 1015.7
20260831213716 82 269 0.0 2.0 0.00 0.00 0.00 77 1015.7
20260831213214 82 279 0.0 1.0 0.00 0.00 0.00 77 1015.9
20260831212717 82 310 0.0 2.0 0.00 0.00 0.00 77 1015.7
20260831212004 83 170 0.0 2.0 0.00 0.00 0.00 77 1015.8
20260831211718 83 172 0.0 1.0 0.00 0.00 0.00 77 1015.6
20260831211004 83 177 0.0 2.0 0.00 0.00 0.00 77 1015.6
20260831210503 83 173 1.0 2.0 0.00 0.00 0.00 77 1015.6
20260831210004 83 168 1.0 2.0 0.00 0.00 0.00 77 1015.4
20260831205714 83 169 1.0 2.0 0.00 0.00 0.00 77 1015.5
20260831205003 83 172 1.0 1.0 0.00 0.00 0.00 77 1015.5
20260831204503 83 166 1.0 2.0 0.00 0.00 0.00 77 1015.3
20260831204004 83 165 0.0 2.0 0.00 0.00 0.00 76 1015.4
20260831203508 83 185 0.0 2.0 0.00 0.00 0.00 76 1015.5
20260831203003 84 180 1.0 2.0 0.00 0.00 0.00 75 1015.5
20260831202504 84 175 1.0 2.0 0.00 0.00 0.00 75 1015.3
20260831202004 84 175 1.0 2.0 0.00 0.00 0.00 75 1015.4
20260831201504 84 174 1.0 1.0 0.00 0.00 0.00 75 1015.3
20260831201004 84 167 0.0 2.0 0.00 0.00 0.00 75 1015.4
20260831200503 84 169 1.0 2.0 0.00 0.00 0.00 75 1015.3
20260831200004 84 168 1.0 2.0 0.00 0.00 0.00 75 1015.2
20260831195503 84 161 1.0 2.0 0.00 0.00 0.00 76 1015.1
20260831195003 84 167 0.0 1.0 0.00 0.00 0.00 76 1015.3
20260831194503 84 171 0.0 2.0 0.00 0.00 0.00 76 1015.2
20260831194003 84 171 0.0 2.0 0.00 0.00 0.00 75 1015.1
20260831193504 84 175 0.0 1.0 0.00 0.00 0.00 75 1015.0
20260831193004 85 179 0.0 1.0 0.00 0.00 0.00 75 1015.2
20260831192503 84 182 0.0 1.0 0.00 0.00 0.00 75 1015.3
20260831192004 84 184 0.0 1.0 0.00 0.00 0.00 75 1015.0
20260831191503 84 189 0.0 1.0 0.00 0.00 0.00 75 1015.2
20260831191003 85 180 0.0 1.0 0.00 0.00 0.00 75 1015.2
20260831190715 85 179 0.0 1.0 0.00 0.00 0.00 74 1014.9
20260831190004 85 180 0.0 1.0 0.00 0.00 0.00 74 1015.2
20260831185504 85 162 0.0 1.0 0.00 0.00 0.00 74 1015.3
20260831185004 85 183 0.0 1.0 0.00 0.00 0.00 74 1015.1
20260831184503 85 187 0.0 1.0 0.00 0.00 0.00 73 1015.0
20260831184004 85 175 0.0 1.0 0.00 0.00 0.00 73 1014.8
20260831183503 85 164 0.0 1.0 0.00 0.00 0.00 72 1014.9
20260831183003 86 151 0.0 1.0 0.00 0.00 0.00 72 1014.9
20260831182504 86 192 1.0 3.0 0.00 0.00 0.00 72 1014.5
20260831182004 86 190 1.0 3.0 0.00 0.00 0.00 71 1014.6
20260831181503 86 190 1.0 2.0 0.00 0.00 0.00 71 1014.5
20260831181003 86 195 1.0 1.0 0.00 0.00 0.00 71 1014.4
20260831180503 86 196 1.0 2.0 0.00 0.00 0.00 71 1014.4
20260831180004 86 194 1.0 2.0 0.00 0.00 0.00 71 1014.5
20260831175503 86 194 1.0 2.0 0.00 0.00 0.00 71 1014.4
20260831175004 86 157 2.0 4.0 0.00 0.00 0.00 71 1014.3
20260831174505 86 142 4.0 4.0 0.00 0.00 0.00 70 1014.4
20260831174003 86 144 3.0 4.0 0.00 0.00 0.00 69 1014.2
20260831173503 86 169 1.0 4.0 0.00 0.00 0.00 69 1014.2
20260831173003 86 197 1.0 2.0 0.00 0.00 0.00 69 1014.2
20260831172503 87 194 0.0 2.0 0.00 0.00 0.00 69 1014.4
20260831172003 86 169 0.0 2.0 0.00 0.00 0.00 68 1014.3
20260831171504 86 172 0.0 2.0 0.00 0.00 0.00 68 1014.4
20260831171213 86 167 1.0 2.0 0.00 0.00 0.00 68 1014.4
20260831170504 86 131 1.0 3.0 0.00 0.00 0.00 69 1014.3
20260831170004 86 117 2.0 3.0 0.00 0.00 0.00 69 1014.3
20260831165503 86 105 2.0 5.0 0.00 0.00 0.00 66 1014.3
20260831165004 86 87 3.0 5.0 0.00 0.00 0.00 66 1014.3
20260831164718 86 86 4.0 5.0 0.00 0.00 0.00 66 1014.2
20260831164004 87 89 5.0 7.0 0.00 0.00 0.00 65 1014.4
20260831163503 87 86 3.0 7.0 0.00 0.00 0.00 65 1014.3
20260831163003 87 83 3.0 5.0 0.00 0.00 0.00 62 1014.6
20260831162504 87 87 4.0 9.0 0.00 0.00 0.00 62 1014.5
20260831162003 87 94 3.0 9.0 0.00 0.00 0.00 61 1014.5
20260831161504 87 95 2.0 7.0 0.00 0.00 0.00 62 1014.4
20260831161003 88 93 3.0 6.0 0.00 0.00 0.00 60 1014.4
20260831160717 88 94 4.0 6.0 0.00 0.00 0.00 60 1014.5
20260831160215 88 82 5.0 8.0 0.00 0.00 0.00 57 1014.3
20260831155503 89 77 6.0 10.0 0.00 0.00 0.00 56 1014.5
20260831155004 89 84 7.0 13.0 0.00 0.00 0.00 55 1014.4
20260831154504 89 93 7.0 13.0 0.00 0.00 0.00 56 1014.4
20260831154003 89 92 6.0 15.0 0.00 0.00 0.00 56 1014.6
20260831153504 88 71 5.0 15.0 0.00 0.00 0.00 55 1014.5
20260831153005 89 73 5.0 8.0 0.00 0.00 0.00 53 1014.4
20260831152504 89 76 7.0 11.0 0.00 0.00 0.00 53 1014.6
20260831152003 89 78 6.0 11.0 0.00 0.00 0.00 52 1014.4
20260831151504 89 99 3.0 9.0 0.00 0.00 0.00 52 1014.3
20260831151004 89 55 5.0 10.0 0.00 0.00 0.00 54 1014.5
20260831150504 89 22 8.0 10.0 0.00 0.00 0.00 53 1014.6
20260831150215 89 21 10.0 13.0 0.00 0.00 0.00 49 1014.6
20260831145503 89 71 10.0 13.0 0.00 0.00 0.00 49 1014.4
20260831145004 89 76 10.0 12.0 0.00 0.00 0.00 51 1014.3
20260831144714 89 70 10.0 14.0 0.00 0.00 0.00 51 1014.5
20260831144004 89 71 11.0 14.0 0.00 0.00 0.00 51 1014.3
20260831143503 89 70 7.0 14.0 0.00 0.00 0.00 53 1014.7
20260831143213 89 66 5.0 14.0 0.00 0.00 0.00 53 1014.6
20260831142503 89 62 3.0 13.0 0.00 0.00 0.00 54 1014.4
20260831142003 90 65 3.0 8.0 0.00 0.00 0.00 54 1014.5
20260831141503 89 70 2.0 9.0 0.00 0.00 0.00 54 1014.3
20260831141004 90 95 3.0 9.0 0.00 0.00 0.00 53 1014.5
20260831140713 90 96 3.0 7.0 0.00 0.00 0.00 53 1014.5
20260831140216 90 92 4.0 13.0 0.00 0.00 0.00 54 1014.5
20260831135714 90 93 7.0 13.0 0.00 0.00 0.00 54 1014.4
20260831135004 89 94 9.0 13.0 0.00 0.00 0.00 52 1014.5
20260831134503 89 91 6.0 13.0 0.00 0.00 0.00 52 1014.4
20260831134004 91 118 3.0 11.0 0.00 0.00 0.00 54 1014.5
20260831133716 91 130 4.0 11.0 0.00 0.00 0.00 53 1014.6
20260831133214 91 116 4.0 9.0 0.00 0.00 0.00 52 1014.5
20260831132504 90 108 3.0 8.0 0.00 0.00 0.00 54 1014.6
20260831132004 90 105 4.0 9.0 0.00 0.00 0.00 52 1014.5
20260831131713 90 89 3.0 9.0 0.00 0.00 0.00 54 1014.6
20260831131004 91 92 5.0 10.0 0.00 0.00 0.00 54 1014.6
20260831130503 91 88 9.0 10.0 0.00 0.00 0.00 54 1014.6
20260831130004 90 87 9.0 11.0 0.00 0.00 0.00 53 1014.6
20260831125504 90 85 9.0 11.0 0.00 0.00 0.00 53 1014.5
20260831125003 90 87 8.0 13.0 0.00 0.00 0.00 52 1014.8
20260831124504 90 91 4.0 13.0 0.00 0.00 0.00 52 1014.7
20260831124003 91 125 3.0 9.0 0.00 0.00 0.00 51 1014.6
20260831123504 91 148 4.0 9.0 0.00 0.00 0.00 53 1014.6
20260831123003 91 149 3.0 10.0 0.00 0.00 0.00 52 1014.7
20260831122503 91 142 3.0 10.0 0.00 0.00 0.00 51 1014.8
20260831122215 91 124 3.0 8.0 0.00 0.00 0.00 51 1014.7
20260831121713 91 123 3.0 9.0 0.00 0.00 0.00 51 1014.7
20260831121004 91 102 3.0 9.0 0.00 0.00 0.00 52 1014.6
20260831120503 90 88 3.0 10.0 0.00 0.00 0.00 52 1014.8
20260831120003 90 84 3.0 10.0 0.00 0.00 0.00 51 1014.9
20260831115503 90 78 3.0 11.0 0.00 0.00 0.00 50 1014.8
20260831115218 89 84 3.0 11.0 0.00 0.00 0.00 50 1015.0
20260831114504 90 70 3.0 8.0 0.00 0.00 0.00 48 1015.1
20260831114003 90 73 2.0 11.0 0.00 0.00 0.00 50 1014.9
20260831113503 89 83 3.0 11.0 0.00 0.00 0.00 52 1015.0
20260831113215 90 86 2.0 11.0 0.00 0.00 0.00 51 1015.0
20260831112504 90 86 2.0 6.0 0.00 0.00 0.00 55 1015.0
20260831112004 90 78 2.0 8.0 0.00 0.00 0.00 53 1015.2
20260831111714 90 80 2.0 8.0 0.00 0.00 0.00 52 1015.2
20260831111003 89 111 3.0 8.0 0.00 0.00 0.00 59 1015.3
20260831110715 89 117 4.0 8.0 0.00 0.00 0.00 57 1015.3
20260831110003 90 123 2.0 7.0 0.00 0.00 0.00 55 1015.1
20260831105504 89 84 2.0 4.0 0.00 0.00 0.00 57 1015.2
20260831105003 90 123 2.0 7.0 0.00 0.00 0.00 55 1015.2
20260831104504 91 126 3.0 7.0 0.00 0.00 0.00 56 1015.2
20260831104004 90 104 2.0 8.0 0.00 0.00 0.00 56 1015.3
20260831103503 91 111 2.0 8.0 0.00 0.00 0.00 55 1015.4
20260831103215 90 112 2.0 5.0 0.00 0.00 0.00 54 1015.3
20260831102503 90 125 2.0 8.0 0.00 0.00 0.00 60 1015.5
20260831102004 90 148 2.0 7.0 0.00 0.00 0.00 58 1015.6
20260831101503 91 109 2.0 6.0 0.00 0.00 0.00 59 1015.8
20260831101003 89 100 3.0 8.0 0.00 0.00 0.00 57 1015.8
20260831100504 90 107 2.0 8.0 0.00 0.00 0.00 54 1015.6
20260831100004 91 107 3.0 7.0 0.00 0.00 0.00 53 1015.7
20260831095716 93 91 4.0 7.0 0.00 0.00 0.00 54 1015.7
20260831095004 91 83 6.0 6.0 0.00 0.00 0.00 53 1015.6
20260831094504 91 106 5.0 8.0 0.00 0.00 0.00 53 1015.6
20260831094003 91 135 3.0 8.0 0.00 0.00 0.00 51 1015.7
20260831093504 94 163 2.0 8.0 0.00 0.00 0.00 51 1015.4
20260831093216 93 153 4.0 8.0 0.00 0.00 0.00 49 1015.6
20260831092714 92 145 8.0 8.0 0.00 0.00 0.00 52 1015.7
20260831092217 92 137 7.0 9.0 0.00 0.00 0.00 50 1015.7
20260831091503 92 119 2.0 6.0 0.00 0.00 0.00 51 1015.7
20260831091004 91 131 2.0 6.0 0.00 0.00 0.00 52 1015.7
20260831090716 91 153 2.0 6.0 0.00 0.00 0.00 52 1015.5
20260831090004 93 151 2.0 8.0 0.00 0.00 0.00 50 1015.6
20260831085505 92 133 2.0 8.0 0.00 0.00 0.00 52 1015.6
20260831085003 93 146 2.0 7.0 0.00 0.00 0.00 52 1015.6
20260831084504 93 146 1.0 5.0 0.00 0.00 0.00 51 1015.7
20260831084004 92 178 2.0 7.0 0.00 0.00 0.00 53 1015.7
20260831083504 95 195 2.0 7.0 0.00 0.00 0.00 52 1015.6
20260831083003 95 190 2.0 4.0 0.00 0.00 0.00 42 1015.5
20260831082504 94 193 2.0 6.0 0.00 0.00 0.00 45 1015.5
20260831082003 94 193 2.0 6.0 0.00 0.00 0.00 45 1015.6
20260831081503 93 201 2.0 9.0 0.00 0.00 0.00 46 1015.6
20260831081003 93 203 2.0 9.0 0.00 0.00 0.00 47 1015.7
20260831080717 93 189 2.0 6.0 0.00 0.00 0.00 48 1015.5
20260831080003 94 166 1.0 4.0 0.00 0.00 0.00 48 1015.6
20260831075504 93 171 1.0 4.0 0.00 0.00 0.00 49 1015.7
20260831075004 93 191 1.0 3.0 0.00 0.00 0.00 49 1015.7
20260831074503 92 193 1.0 4.0 0.00 0.00 0.00 50 1015.8
20260831074004 92 193 2.0 4.0 0.00 0.00 0.00 50 1015.6
20260831073504 92 197 1.0 4.0 0.00 0.00 0.00 51 1015.5
20260831073003 92 195 1.0 3.0 0.00 0.00 0.00 51 1015.2
20260831072503 90 195 2.0 3.0 0.00 0.00 0.00 53 1015.2
20260831072213 90 203 2.0 4.0 0.00 0.00 0.00 53 1015.4
20260831071503 90 200 2.0 4.0 0.00 0.00 0.00 55 1015.3
20260831071004 90 184 2.0 6.0 0.00 0.00 0.00 54 1015.2
20260831070717 90 185 2.0 6.0 0.00 0.00 0.00 54 1015.2
20260831070003 90 149 2.0 4.0 0.00 0.00 0.00 54 1015.4
20260831065713 90 135 2.0 4.0 0.00 0.00 0.00 54 1015.3
20260831065005 88 132 2.0 6.0 0.00 0.00 0.00 57 1015.3
20260831064504 88 133 1.0 6.0 0.00 0.00 0.00 57 1015.2
20260831064003 89 158 1.0 4.0 0.00 0.00 0.00 57 1015.1
20260831063715 89 165 1.0 4.0 0.00 0.00 0.00 58 1015.1
20260831063004 90 174 1.0 4.0 0.00 0.00 0.00 56 1015.2
20260831062503 89 184 1.0 4.0 0.00 0.00 0.00 56 1015.3
20260831062003 89 183 1.0 4.0 0.00 0.00 0.00 55 1015.1
20260831061503 89 184 1.0 4.0 0.00 0.00 0.00 57 1015.1
20260831061004 89 187 0.0 1.0 0.00 0.00 0.00 55 1015.0
20260831060718 89 193 1.0 2.0 0.00 0.00 0.00 56 1014.9
20260831060003 88 199 1.0 2.0 0.00 0.00 0.00 57 1015.1
20260831055503 87 194 1.0 2.0 0.00 0.00 0.00 58 1015.0
20260831055004 87 190 0.0 2.0 0.00 0.00 0.00 59 1014.9
20260831054503 87 196 0.0 1.0 0.00 0.00 0.00 60 1015.0
20260831054003 87 200 0.0 1.0 0.00 0.00 0.00 60 1015.1
20260831053503 87 186 0.0 0.0 0.00 0.00 0.00 61 1015.1
20260831053004 86 185 0.0 1.0 0.00 0.00 0.00 62 1014.9
20260831052503 85 224 0.0 1.0 0.00 0.00 0.00 62 1014.8
20260831052003 85 252 0.0 1.0 0.00 0.00 0.00 64 1015.0
20260831051713 84 303 0.0 2.0 0.00 0.00 0.00 64 1014.9
20260831051003 83 307 1.0 2.0 0.00 0.00 0.00 65 1014.8
20260831050504 83 267 0.0 1.0 0.00 0.00 0.00 65 1014.8
20260831050004 83 179 0.0 1.0 0.00 0.00 0.00 66 1014.7
20260831045504 83 195 1.0 2.0 0.00 0.00 0.00 66 1014.8
20260831045004 83 190 1.0 2.0 0.00 0.00 0.00 66 1014.8
20260831044504 83 226 1.0 2.0 0.00 0.00 0.00 66 1014.7
20260831044003 83 253 0.0 2.0 0.00 0.00 0.00 66 1014.9
20260831043716 83 254 0.0 2.0 0.00 0.00 0.00 66 1014.7
20260831043214 83 194 0.0 1.0 0.00 0.00 0.00 66 1014.6
20260831042503 83 195 0.0 1.0 0.00 0.00 0.00 65 1014.7
20260831042004 83 244 0.0 1.0 0.00 0.00 0.00 65 1014.5
20260831041713 83 238 0.0 1.0 0.00 0.00 0.00 66 1014.5
20260831041004 83 195 0.0 1.0 0.00 0.00 0.00 66 1014.6
20260831040504 83 195 1.0 3.0 0.00 0.00 0.00 67 1014.5
20260831040004 84 187 1.0 3.0 0.00 0.00 0.00 68 1014.6
20260831035715 84 188 1.0 3.0 0.00 0.00 0.00 68 1014.4
20260831035003 84 163 0.0 1.0 0.00 0.00 0.00 68 1014.6
20260831034503 84 215 0.0 2.0 0.00 0.00 0.00 67 1014.5
20260831034004 84 233 0.0 2.0 0.00 0.00 0.00 65 1014.5
20260831033503 84 156 0.0 2.0 0.00 0.00 0.00 64 1014.5
20260831033004 85 134 1.0 2.0 0.00 0.00 0.00 63 1014.2
20260831032503 84 125 0.0 2.0 0.00 0.00 0.00 62 1014.2
20260831032003 84 283 0.0 2.0 0.00 0.00 0.00 61 1014.4
20260831031503 84 277 1.0 2.0 0.00 0.00 0.00 61 1014.5
20260831031003 84 258 0.0 1.0 0.00 0.00 0.00 61 1014.4
20260831030503 84 238 0.0 0.0 0.00 0.00 0.00 61 1014.4
20260831030005 84 267 0.0 1.0 0.00 0.00 0.00 61 1014.6
20260831025503 84 193 0.0 2.0 0.00 0.00 0.00 61 1014.6
20260831025003 85 162 0.0 2.0 0.00 0.00 0.00 61 1014.6
20260831024504 85 232 0.0 1.0 0.00 0.00 0.00 61 1014.5
20260831024004 84 257 0.0 2.0 0.00 0.00 0.00 62 1014.6
20260831023503 84 330 0.0 2.0 0.00 0.00 0.00 62 1014.6
20260831023003 84 331 1.0 2.0 0.00 0.00 0.00 62 1014.8
20260831022503 84 337 1.0 2.0 0.00 0.00 0.00 63 1014.9
20260831022003 84 304 0.0 1.0 0.00 0.00 0.00 64 1014.7
20260831021503 84 353 1.0 4.0 0.00 0.00 0.00 64 1014.6
20260831021004 84 4 1.0 4.0 0.00 0.00 0.00 64 1014.7
20260831020503 84 340 0.0 3.0 0.00 0.00 0.00 65 1014.7
20260831020003 84 305 0.0 1.0 0.00 0.00 0.00 65 1014.6
20260831015503 84 0 0.0 0.0 0.00 0.00 0.00 64 1014.6
20260831015004 85 0 0.0 0.0 0.00 0.00 0.00 64 1014.6
20260831014717 84 0 0.0 0.0 0.00 0.00 0.00 64 1014.7
20260831014003 85 166 0.0 1.0 0.00 0.00 0.00 63 1014.7
20260831013503 85 174 0.0 1.0 0.00 0.00 0.00 62 1014.4
20260831013003 85 170 0.0 2.0 0.00 0.00 0.00 61 1014.5
20260831012503 85 172 1.0 2.0 0.00 0.00 0.00 61 1014.4
20260831012004 86 170 0.0 1.0 0.00 0.00 0.00 60 1014.4
20260831011503 86 162 1.0 3.0 0.00 0.00 0.00 60 1014.3
20260831011004 86 160 1.0 3.0 0.00 0.00 0.00 59 1014.4
20260831010503 86 141 0.0 2.0 0.00 0.00 0.00 58 1014.4
20260831010003 86 144 0.0 2.0 0.00 0.00 0.00 57 1014.4
20260831005503 86 164 0.0 2.0 0.00 0.00 0.00 57 1014.6
20260831005004 86 175 1.0 2.0 0.00 0.00 0.00 56 1014.4
20260831004503 86 170 1.0 3.0 0.00 0.00 0.00 55 1014.5
20260831004216 86 169 1.0 3.0 0.00 0.00 0.00 55 1014.3
20260831003503 87 160 1.0 2.0 0.00 0.00 0.00 55 1014.3
20260831003004 87 169 1.0 3.0 0.00 0.00 0.00 55 1014.0
20260831002503 87 173 1.0 3.0 0.00 0.00 0.00 55 1013.9
20260831002213 86 170 1.0 2.0 0.00 0.00 0.00 56 1014.2
20260831001503 86 173 1.0 2.0 0.00 0.00 0.00 59 1014.2
20260831001003 87 184 1.0 2.0 0.00 0.00 0.00 60 1014.5
20260831000505 87 190 1.0 3.0 0.00 0.00 0.00 60 1014.6
20260831000004 87 176 1.0 3.0 0.00 0.00 0.00 60 1014.7
20260830235503 87 172 1.0 2.0 0.00 0.00 0.00 60 1014.6
20260830235004 87 191 1.0 3.0 0.00 0.00 0.00 59 1014.9
20260830234505 87 189 1.0 3.0 0.00 0.00 0.00 59 1014.7
20260830234003 87 170 1.0 2.0 0.00 0.00 0.00 59 1014.8
20260830233503 87 173 1.0 3.0 0.00 0.00 0.00 58 1014.8
20260830233003 88 181 1.0 3.0 0.00 0.00 0.00 56 1014.9
20260830232715 88 188 1.0 3.0 0.00 0.00 0.00 55 1014.8
20260830232004 88 177 0.0 1.0 0.00 0.00 0.00 53 1014.9
20260830231503 88 181 0.0 1.0 0.00 0.00 0.00 52 1014.6
20260830230503 88 193 0.0 2.0 0.00 0.00 0.00 52 1014.5
20260830230215 88 183 0.0 1.0 0.00 0.00 0.00 52 1014.6